SKH4635 CYQR-CYQR

Flight info

Callsign SKH4635
Flight time 0h 2m
Altitude
Route CCTS
Aircraft

Departure

Time 2026-05-05 13:34
Airport Regina International Airport (CYQR)

Arrival

Time 2026-05-05 13:37
Airport Regina International Airport (CYQR)
Time Latitude Longitude Altitude Speed Heading
2026-05-05 13:23 50.43806 -104.65570 1877 ft 0 kts 93°
2026-05-05 13:26 50.43808 -104.65549 1886 ft 8 kts 77°
2026-05-05 13:26 50.43811 -104.65389 1888 ft 14 kts 91°
2026-05-05 13:27 50.43777 -104.65371 1889 ft 7 kts 228°
2026-05-05 13:27 50.43736 -104.65404 1885 ft 8 kts 184°
2026-05-05 13:27 50.43651 -104.65403 1887 ft 16 kts 181°
2026-05-05 13:27 50.43556 -104.65384 1884 ft 11 kts 130°
2026-05-05 13:28 50.43560 -104.65275 1882 ft 11 kts 91°
2026-05-05 13:28 50.43522 -104.65233 1887 ft 6 kts 239°
2026-05-05 13:28 50.43516 -104.65339 1883 ft 13 kts 275°
2026-05-05 13:28 50.43557 -104.65430 1883 ft 8 kts 311°
2026-05-05 13:29 50.43541 -104.65518 1890 ft 9 kts 271°
2026-05-05 13:29 50.43515 -104.65605 1888 ft 10 kts 230°
2026-05-05 13:29 50.43464 -104.65698 1887 ft 13 kts 229°
2026-05-05 13:29 50.43407 -104.65803 1891 ft 12 kts 224°
2026-05-05 13:30 50.43333 -104.65861 1893 ft 13 kts 186°
2026-05-05 13:30 50.43257 -104.65806 1894 ft 14 kts 130°
2026-05-05 13:30 50.43184 -104.65688 1895 ft 16 kts 137°
2026-05-05 13:30 50.43095 -104.65562 1895 ft 20 kts 138°
2026-05-05 13:31 50.42971 -104.65386 1894 ft 26 kts 139°
2026-05-05 13:31 50.42815 -104.65167 1891 ft 31 kts 138°
2026-05-05 13:31 50.42665 -104.64955 1889 ft 13 kts 138°
2026-05-05 13:31 50.42593 -104.64886 1895 ft 16 kts 172°
2026-05-05 13:32 50.42513 -104.64898 1894 ft 0 kts 186°
2026-05-05 13:32 50.42477 -104.64911 1897 ft 13 kts 205°
2026-05-05 13:33 50.42451 -104.65024 1892 ft 9 kts 313°
2026-05-05 13:33 50.42607 -104.65246 1895 ft 50 kts 316°
2026-05-05 13:33 50.42879 -104.65647 1998 ft 54 kts 319°
2026-05-05 13:33 50.43180 -104.65993 2108 ft 56 kts 322°
2026-05-05 13:34 50.43476 -104.66398 2223 ft 53 kts 319°
2026-05-05 13:34 50.43396 -104.66833 2367 ft 62 kts 231°
2026-05-05 13:34 50.42995 -104.67216 2438 ft 78 kts 194°
2026-05-05 13:34 50.42525 -104.66817 2553 ft 84 kts 140°
2026-05-05 13:35 50.42059 -104.66203 2607 ft 92 kts 134°
2026-05-05 13:35 50.41557 -104.65535 2583 ft 104 kts 138°
2026-05-05 13:35 50.40943 -104.64835 2423 ft 111 kts 157°
2026-05-05 13:35 50.40620 -104.64217 2678 ft 63 kts 23°
2026-05-05 13:36 50.41098 -104.64056 2424 ft 68 kts
2026-05-05 13:36 50.41513 -104.63900 2290 ft 64 kts 353°
2026-05-05 13:36 50.41869 -104.64212 2109 ft 60 kts 321°
2026-05-05 13:36 50.42176 -104.64625 2002 ft 52 kts 316°
2026-05-05 13:37 50.42426 -104.64990 1933 ft 48 kts 313°
2026-05-05 13:37 50.42639 -104.65288 1888 ft 32 kts 319°
2026-05-05 13:37 50.42809 -104.65538 1896 ft 47 kts 320°
2026-05-05 13:37 50.43085 -104.65898 2062 ft 44 kts 320°
2026-05-05 13:38 50.43315 -104.66219 2153 ft 53 kts 317°
2026-05-05 13:38 50.43572 -104.66596 2351 ft 40 kts 303°
2026-05-05 13:38 50.43346 -104.66792 2486 ft 66 kts 144°
2026-05-05 13:38 50.42867 -104.66291 2432 ft 95 kts 150°
2026-05-05 13:39 50.42280 -104.65799 2508 ft 101 kts 156°
2026-05-05 13:39 50.41585 -104.65352 2484 ft 108 kts 163°
2026-05-05 13:39 50.40850 -104.65064 2466 ft 107 kts 186°
2026-05-05 13:39 50.40560 -104.64605 2489 ft 87 kts 58°
2026-05-05 13:40 50.40918 -104.64102 2369 ft 69 kts 355°
2026-05-05 13:40 50.41418 -104.64142 2183 ft 73 kts 352°
2026-05-05 13:40 50.41902 -104.64306 2064 ft 72 kts 326°
2026-05-05 13:40 50.42283 -104.64780 1981 ft 67 kts 319°
2026-05-05 13:41 50.42592 -104.65220 1906 ft 51 kts 318°
2026-05-05 13:41 50.42812 -104.65532 1896 ft 40 kts 317°
2026-05-05 13:41 50.43088 -104.65908 1990 ft 52 kts 323°
2026-05-05 13:41 50.43357 -104.66225 2115 ft 42 kts 320°
2026-05-05 13:42 50.43545 -104.66578 2143 ft 56 kts 303°
2026-05-05 13:42 50.43877 -104.66511 2187 ft 86 kts 69°
2026-05-05 13:42 50.43440 -104.65746 2141 ft 103 kts 138°
2026-05-05 13:42 50.43171 -104.64967 2413 ft 66 kts 71°
2026-05-05 13:43 50.43163 -104.64166 2480 ft 88 kts 104°
2026-05-05 13:43 50.42724 -104.63375 2434 ft 107 kts 150°
2026-05-05 13:43 50.42055 -104.63121 2458 ft 90 kts 228°
2026-05-05 13:43 50.42116 -104.63829 2300 ft 69 kts 289°
2026-05-05 13:44 50.42201 -104.64634 2020 ft 72 kts 299°
2026-05-05 13:44 50.42543 -104.65155 1911 ft 64 kts 317°
2026-05-05 13:44 50.42819 -104.65543 1897 ft 43 kts 319°
2026-05-05 13:44 50.43005 -104.65808 1896 ft 41 kts 319°
2026-05-05 13:45 50.43285 -104.66209 1975 ft 59 kts 315°
2026-05-05 13:45 50.43603 -104.66733 2007 ft 67 kts 318°
2026-05-05 13:45 50.43736 -104.67197 2232 ft 62 kts 217°
2026-05-05 13:45 50.43283 -104.66944 2352 ft 73 kts 144°
2026-05-05 13:46 50.42861 -104.66546 2473 ft 78 kts 147°
2026-05-05 13:46 50.42383 -104.66000 2567 ft 87 kts 139°
2026-05-05 13:46 50.41958 -104.65371 2737 ft 88 kts 129°
2026-05-05 13:46 50.41476 -104.64696 2694 ft 91 kts 158°
2026-05-05 13:47 50.40983 -104.64267 2818 ft 66 kts 91°
2026-05-05 13:47 50.41348 -104.64290 2421 ft 74 kts 350°
2026-05-05 13:47 50.41769 -104.64279 2228 ft 54 kts 356°
2026-05-05 13:47 50.42088 -104.64452 2097 ft 49 kts 317°
2026-05-05 13:48 50.42234 -104.64649 2028 ft 32 kts 315°
2026-05-05 13:48 50.42381 -104.64909 1946 ft 37 kts 313°
2026-05-05 13:48 50.42541 -104.65172 1892 ft 26 kts 321°